TimePST,TemperatureF,Dew PointF,Humidity,Sea Level PressureIn,VisibilityMPH,Wind Direction,Wind SpeedMPH,Gust SpeedMPH,PrecipitationIn,Events,Conditions,WindDirDegrees,DateUTC
12:01 AM,42.8,41.0,93,30.28,8.0,SE,3.5,-,N/A,,Scattered Clouds,130,2012-11-15 08:01:00
12:11 AM,41.0,39.2,93,30.27,7.0,Calm,Calm,-,N/A,,Mostly Cloudy,0,2012-11-15 08:11:00
12:53 AM,43.0,42.1,97,30.26,7.0,Calm,Calm,-,N/A,,Overcast,0,2012-11-15 08:53:00
1:01 AM,42.8,42.8,100,30.26,2.0,Calm,Calm,-,N/A,,Overcast,0,2012-11-15 09:01:00
1:26 AM,42.8,42.8,100,30.25,0.5,Calm,Calm,-,N/A,Fog,Fog,0,2012-11-15 09:26:00
1:53 AM,43.0,41.0,93,30.25,0.8,Calm,Calm,-,N/A,Fog,Fog,0,2012-11-15 09:53:00
2:00 AM,42.8,41.0,93,30.25,6.0,Variable,3.5,-,N/A,Fog,Fog,0,2012-11-15 10:00:00
2:53 AM,41.0,39.9,96,30.23,10.0,Calm,Calm,-,N/A,Fog,Fog,0,2012-11-15 10:53:00
3:48 AM,42.8,39.2,87,30.21,10.0,Calm,Calm,-,N/A,Fog,Fog,0,2012-11-15 11:48:00
3:53 AM,42.1,39.0,89,30.21,10.0,Calm,Calm,-,N/A,Fog,Fog,0,2012-11-15 11:53:00
4:46 AM,41.0,37.4,87,30.20,10.0,Calm,Calm,-,N/A,Fog,Fog,0,2012-11-15 12:46:00
4:53 AM,41.0,37.9,89,30.20,10.0,Calm,Calm,-,N/A,Fog,Fog,0,2012-11-15 12:53:00
5:51 AM,39.2,37.4,93,30.18,10.0,Calm,Calm,-,N/A,Fog,Fog,0,2012-11-15 13:51:00
5:53 AM,39.9,37.0,89,30.18,10.0,Calm,Calm,-,N/A,,Mostly Cloudy,0,2012-11-15 13:53:00
6:53 AM,39.9,37.0,89,30.17,10.0,Calm,Calm,-,N/A,,Scattered Clouds,0,2012-11-15 14:53:00
7:53 AM,39.9,37.0,89,30.16,7.0,Variable,3.5,-,N/A,,Mostly Cloudy,0,2012-11-15 15:53:00
8:28 AM,39.2,37.4,93,30.14,10.0,NNW,4.6,-,N/A,,Mostly Cloudy,330,2012-11-15 16:28:00
8:48 AM,41.0,37.4,87,30.14,10.0,North,3.5,-,N/A,,Mostly Cloudy,360,2012-11-15 16:48:00
8:53 AM,42.1,37.0,82,30.14,10.0,Calm,Calm,-,N/A,,Mostly Cloudy,0,2012-11-15 16:53:00
9:29 AM,42.8,37.4,81,30.13,10.0,NE,3.5,-,N/A,,Scattered Clouds,40,2012-11-15 17:29:00
9:53 AM,44.1,37.9,79,30.11,10.0,NNW,4.6,-,N/A,,Scattered Clouds,330,2012-11-15 17:53:00
10:53 AM,45.0,39.0,80,30.09,10.0,Variable,4.6,-,N/A,,Scattered Clouds,0,2012-11-15 18:53:00
11:53 AM,46.0,39.9,79,30.05,9.0,NW,9.2,-,N/A,,Partly Cloudy,320,2012-11-15 19:53:00
12:53 PM,48.0,39.9,74,30.03,10.0,WNW,5.8,-,N/A,,Clear,300,2012-11-15 20:53:00
1:53 PM,48.9,39.9,71,30.02,10.0,Calm,Calm,-,N/A,,Clear,0,2012-11-15 21:53:00
2:53 PM,48.0,39.0,71,30.01,10.0,Variable,5.8,-,N/A,,Clear,0,2012-11-15 22:53:00
3:53 PM,48.0,37.9,68,30.01,10.0,NW,4.6,-,N/A,,Clear,310,2012-11-15 23:53:00
4:53 PM,46.0,39.9,79,30.00,10.0,WNW,4.6,-,N/A,,Clear,290,2012-11-16 00:53:00
5:53 PM,45.0,39.9,82,29.99,10.0,Calm,Calm,-,N/A,,Partly Cloudy,0,2012-11-16 01:53:00
6:53 PM,45.0,39.9,82,29.99,10.0,Calm,Calm,-,N/A,,Mostly Cloudy,0,2012-11-16 02:53:00
7:23 PM,42.8,39.2,87,29.98,10.0,SE,4.6,-,N/A,,Mostly Cloudy,140,2012-11-16 03:23:00
7:53 PM,42.1,39.0,89,29.98,9.0,SE,4.6,-,N/A,,Mostly Cloudy,140,2012-11-16 03:53:00
8:03 PM,42.8,39.2,87,29.97,8.0,SE,4.6,-,N/A,,Scattered Clouds,140,2012-11-16 04:03:00
8:53 PM,41.0,39.0,93,29.97,8.0,SE,3.5,-,N/A,,Scattered Clouds,140,2012-11-16 04:53:00
9:53 PM,37.9,37.0,97,29.96,6.0,SE,6.9,-,N/A,,Scattered Clouds,140,2012-11-16 05:53:00
10:46 PM,37.4,35.6,93,29.96,0.2,SE,8.1,-,N/A,Fog,Fog,140,2012-11-16 06:46:00
10:53 PM,37.0,36.0,96,29.96,0.2,SE,9.2,-,N/A,Fog,Fog,140,2012-11-16 06:53:00
11:10 PM,37.4,37.4,100,29.96,0.2,SSE,8.1,-,N/A,Fog,Fog,150,2012-11-16 07:10:00
11:53 PM,39.0,39.0,100,29.95,0.2,SE,3.5,-,N/A,Fog,Fog,140,2012-11-16 07:53:00